2024-247H

Last updated on Fri Jan 17 2025 00:02:04 GMT+0000 (Coordinated Universal Time)

1 62384U 24247H 25015.68409582 -.00084244 00000+0 -47713-2 0 9994 2 62384 44.9992 225.5373 0002179 229.1557 130.9131 15.12724765 3976
UTC large
Height (km)
Speed (km/s)
/
Latitude / Longitude
Inclination (degrees)
Orbital Period (minutes)
Azimuth
Elevation
Range (km)
Doppler Factor

Next 0 passes for location: London (51.5072 / 0.1276)

Sorry there are no passes over London.